Regional Weather Roundup
Issued by NWS

Home | Current Version | Previous Version | Graphics & Text | Print | Product List | Glossary On
Versions: 1 2 3 4 5 6 7 8 9 10 11 12 13 14 15 16 17 18 19 20 21 22 23 24 25 26 27 28 29 30 31 32 33 34 35 36 37 38 39 40 41 42 43 44 45 46 47 48 49 50
000
ASUS43 KLSX 251359
RWRMO

WEATHER SUMMARY FOR MISSOURI
NATIONAL WEATHER SERVICE SPRINGFIELD MO
900 AM CDT SUN JUN 25 2017

NOTE: "FAIR" INDICATES FEW OR NO CLOUDS BELOW 12,000 FEET WITH NO
       SIGNIFICANT WEATHER AND/OR OBSTRUCTIONS TO VISIBILITY.
       CURRENT SKY AND/OR WEATHER CONDITIONS ARE NOT AVAILABLE FOR
       CHILLICOTHE AND FARMINGTON.

MOZ001>031-035>038-043-044-053-054-251500-
...NORTHERN AND WESTERN MISSOURI...

CITY           SKY/WX    TMP DP  RH WIND       PRES   REMARKS
KANSAS CTY INT MOSUNNY   67  50  54 N9        30.30R
KANSAS C DTWN  SUNNY     69  52  54 NW7       30.29R
LEE`S SUMMIT   SUNNY     69  52  54 NW13      30.30R
ST JOSEPH      SUNNY     67  49  52 N9        30.31R
CHILLICOTHE      N/A     68  53  58 VRB3      30.28R
KIRKSVILLE     SUNNY     66  48  52 NW9       30.26R

$$
MOZ066>068-077>081-088>096-101>105-251500-
...SOUTHWEST MISSOURI...

CITY           SKY/WX    TMP DP  RH WIND       PRES   REMARKS
SPRINGFIELD    MOSUNNY   73  54  51 W6        30.29R
JOPLIN         SUNNY     75  59  57 NW6       30.30R
BRANSON        MOSUNNY   70  55  60 SW5       30.31R

$$
MOZ032>034-039>042-045>050-055>058-069>072-251500-
...CENTRAL MISSOURI...

CITY           SKY/WX    TMP DP  RH WIND       PRES   REMARKS
COLUMBIA       SUNNY     68  53  58 NW12      30.25R
JEFFERSON CITY SUNNY     70  53  54 W9        30.24S
ROLLA          SUNNY     69  54  58 W12G17    30.26R
SEDALIA        SUNNY     70  54  56 NW8       30.27R
WARRENSBURG    SUNNY     68  52  56 NW7       30.27R
OSAGE BEACH    SUNNY     69  55  60 W7        30.28S

$$
MOZ051-052-059>065-251500-
...EAST CENTRAL MISSOURI...

CITY           SKY/WX    TMP DP  RH WIND       PRES   REMARKS
ST LOUIS INTL  MOSUNNY   73  51  46 SW13      30.22S
SPIRIT OF STL  MOSUNNY   70  53  54 W13       30.21S
ST CHARLES     SUNNY     68  52  56 W10       30.21R

$$
MOZ072>076-082>087-097>100-106>115-251500-
...SOUTH CENTRAL AND SOUTHEAST MISSOURI...

CITY           SKY/WX    TMP DP  RH WIND       PRES   REMARKS
CAPE GIRARDEAU SUNNY     68  58  70 W5        30.24R
FARMINGTON     MOSUNNY   72  52  49 W7        30.26S
POPLAR BLUFF   SUNNY     70  57  63 CALM      30.25R
WEST PLAINS    SUNNY     73  51  46 W6        30.29S

$$




USA.gov is the U.S. government's official web portal to all federal, state and local government web resources and services.